Вернуться в каталог

TEVEL2-1

АктивенЛюбительское радиоSSO
NORAD 63217·PAYLOAD·🇮🇱 Israel

Запущен Mar 15, 2025 с Vandenberg Space Force Base

Loading…

Ближайшие Пролёты (ближайшие 24 часа)

TLE

СвежийSource: AMSAT

Эпоха: Sep 13, 2026, 16:33 UTC

1 63217U 25052H   26256.69026919  .00014307  00000-0  40231-3 0  9994
2 63217  97.3738 152.7684 0003718 133.3229 226.8326 15.36601017 83676

Отслеживайте TEVEL2-1 в реальном времени с AllMySat

Download on the App Store